Flag for Papua New Guinea Weather past 2 weeks in Port Moresby, Papua New Guinea

Now
81 °F

Partly sunny.


Feels Like: 85 °F
Forecast: 75 / 87 °F
Wind: 12 mph from North

Location: Moresby

Current Time: Feb 28, 2015 at 9:35:39 AM

Latest Report: Feb 28, 2015 at 9:00 AM


Visibility: N/A

Pressure: 29.80 "Hg

Humidity: 79%

Dew point: 73 °F

Location of Port MoresbyLocation

Historic Weather in Port Moresby — Graph

°F

Port Moresby temperature yesterday

Maximum temperature yesterday: 88 °F (at 12:00 PM)
Minimum temperature yesterday: 73 °F (at 6:00 AM)
Average temperature yesterday: 82 °F

Past Weeks' High & Low Weather Summary

 TemperatureHumidityPressure
High93 °F (Feb 20, 11:00 AM)100% (Feb 17, 6:00 AM)29.89 "Hg (Feb 17, 6:00 AM)
Low73 °F (Feb 27, 6:00 AM)46% (Feb 16, 1:00 PM)29.59 "Hg (Feb 16, 4:00 PM)
Average81 °F79%29.74 "Hg
* Reported Feb 13 8:00 AM — Feb 28 8:00 AM, Port Moresby, Weather by CustomWeather, © 2015

Note: Actual official high and low records may vary slightly from our data, if they occured in-between our weather recording intervals... More about our weather records

Advertising

Port Moresby weather history for previous 24 hours

 ConditionsComfort  
Time TempWeatherWind HumidityBarometerVisibility
8:00 AM
Sat, Feb 28
77 °FBroken clouds.3 mph89%29.80 "HgN/A
7:00 AM75 °FBroken clouds.2 mph94%29.77 "HgN/A
6:00 AM75 °FPartly cloudy.No wind94%29.74 "HgN/A
5:00 AM75 °FPartly cloudy.No wind94%29.74 "HgN/A
4:00 AM75 °FPartly cloudy.No wind94%29.71 "HgN/A
3:00 AM75 °FPartly cloudy.2 mph94%29.71 "HgN/A
2:00 AM77 °FPassing clouds.2 mph94%29.74 "HgN/A
1:00 AM77 °FPassing clouds.2 mph94%29.74 "HgN/A
12:00 AM79 °FPassing clouds.No wind84%29.77 "HgN/A
11:00 PM
Fri, Feb 27
77 °FPassing clouds.No wind94%29.77 "HgN/A
10:00 PM79 °FPassing clouds.3 mph84%29.77 "HgN/A
9:00 PM79 °FPartly cloudy.No wind84%29.77 "HgN/A
8:00 PM81 °FPassing clouds.No wind79%29.74 "HgN/A
7:00 PM81 °FPartly cloudy.3 mph74%29.74 "HgN/A
6:00 PM84 °FBroken clouds.14 mph70%29.71 "HgN/A
5:00 PM84 °FScattered clouds.17 mph70%29.68 "HgN/A
4:00 PM86 °FScattered clouds.17 mph66%29.68 "HgN/A
3:00 PM88 °FScattered clouds.17 mph62%29.68 "HgN/A
2:00 PM88 °FBroken clouds.16 mph62%29.71 "HgN/A
1:00 PM88 °FBroken clouds.16 mph59%29.74 "HgN/A
12:00 PM88 °FPartly sunny.14 mph59%29.77 "HgN/A
11:00 AM86 °FPartly sunny.3 mph70%29.77 "HgN/A
10:00 AM84 °FPartly sunny.6 mph70%29.77 "HgN/A
9:00 AM82 °FBroken clouds.2 mph74%29.77 "HgN/A
Weather by CustomWeather, © 2015

See weather overviewHow to use our weather pages